Flight Track Log - Related Links

Times and Time Zones

All times are in EDT time to prevent confusion due to time zone crossing. See the N775NC flight status page for this flight to view local times or setup timezone preferences in your user account.

Time Position Orientation Groundspeed Altitude Reporting Facility
EDT Latitude Longitude Course Direction KTS MPH feet Rate Location/Type
Wed 06:39:42 AM 32.1267 -81.2489 287° West 168 193 1,600  Level Jacksonville Center
Wed 06:40:42 AM 32.1358 -81.3078 280° West 203 234 3,000 1,700 Climbing Jacksonville Center
Wed 06:41:42 AM 32.1533 -81.3811 286° West 223 257 5,000 2,600 Climbing Jacksonville Center
Wed 06:42:00 AM 32.2316 -81.5929 287° West  Level FlightAware Approximate
Wed 06:42:42 AM 32.1794 -81.4664 290° West 249 287 8,200  Level Jacksonville Center
Wed 06:43:00 AM 32.2573 -81.6934 288° West  Level FlightAware Approximate
Wed 06:43:42 AM 32.2094 -81.5447 294° West 254 292 10,400  Level Jacksonville Center
Wed 06:44:00 AM 32.2846 -81.7933 288° West  Level FlightAware Approximate
Wed 06:44:42 AM 32.2375 -81.6425 289° West 300 345 11,400  Level Jacksonville Center
Wed 06:45:00 AM 32.3090 -81.8858 287° West  Level FlightAware Approximate
Wed 06:46:52 AM 32.2953 -81.8742 286° West 344 396 16,000  Level Atlanta Center
Wed 06:47:52 AM 32.3264 -81.9889 288° West 368 423 18,100 1,950 Climbing Atlanta Center
Wed 06:48:52 AM 32.3578 -82.1111 287° West 380 437 19,900 1,850 Climbing Atlanta Center
Wed 06:49:52 AM 32.3908 -82.2358 287° West 390 449 21,800 1,050 Climbing Atlanta Center
Wed 06:50:52 AM 32.4258 -82.3483 290° West 384 442 22,000 100 Climbing Atlanta Center
Wed 06:51:52 AM 32.4567 -82.4658 287° West 378 435 22,000  Level Atlanta Center
Wed 06:52:52 AM 32.4894 -82.5811 289° West 373 429 22,000  Level Atlanta Center
Wed 06:53:52 AM 32.5264 -82.7108 289° West 373 429 22,000  Level Atlanta Center
Wed 06:54:52 AM 32.5544 -82.8189 287° West 379 436 22,000  Level Atlanta Center
Wed 06:55:52 AM 32.6222 -82.9094 312° West 373 429 22,000  Level Atlanta Center
Wed 06:56:52 AM 32.6961 -83.0094 311° West 386 444 22,000  Level Atlanta Center
Wed 06:57:52 AM 32.7678 -83.1000 313° West 386 444 22,000  Level Atlanta Center
Wed 06:58:52 AM 32.8353 -83.1933 311° West 386 444 22,000  Level Atlanta Center
Wed 06:59:52 AM 32.9111 -83.2942 312° West 389 448 22,000 -750 Level Atlanta Center
Wed 07:00:52 AM 32.9783 -83.3825 312° West 383 441 20,500 -2,000 Descending Atlanta Center
Wed 07:01:52 AM 33.0414 -83.4714 310° West 369 425 18,000 -2,700 Descending Atlanta Center
Wed 07:02:52 AM 33.1086 -83.5700 309° West 349 402 15,100 -2,700 Descending Atlanta Center
Wed 07:03:52 AM 33.1633 -83.6592 306° West 342 394 12,600 -1,600 Descending Atlanta Center
Wed 07:04:52 AM 33.2114 -83.7433 304° West 329 379 11,900 -550 Descending Atlanta Center
Wed 07:05:52 AM 33.2575 -83.8228 305° West 310 357 11,500 -950 Descending Atlanta Center
Wed 07:06:52 AM 33.2994 -83.8922 306° West 292 336 10,000 -1,750 Descending Atlanta Center
Wed 07:07:52 AM 33.3456 -83.9717 305° West 274 315 8,000 -1,500 Descending Atlanta Center
Wed 07:08:52 AM 33.4039 -84.0239 323° Northwest 254 292 7,000 -1,400 Descending Atlanta Center
Wed 07:09:52 AM 33.4769 -84.0414 349° North 249 287 5,200 -1,500 Descending Atlanta Center
Wed 07:10:52 AM 33.5439 -84.0886 330° Northwest 266 306 4,000 -1,050 Descending Atlanta Center
Wed 07:11:52 AM 33.6022 -84.1361 326° Northwest 266 306 3,100 -478 Descending Atlanta Center
Wed 07:13:10 AM 33.6333 -84.2167 295° West 189 217 2,900 -83 Descending Atlanta TRACON
Wed 07:14:16 AM 33.6333 -84.2833 270° West 187 215 2,900 -381 Level Atlanta TRACON
Wed 07:15:16 AM 33.6333 -84.3500 270° West 181 208 2,100 -789 Descending Atlanta TRACON
Wed 07:16:10 AM 33.6333 -84.3833 270° West 144 166 1,400 -778 Descending Atlanta TRACON

Login

Don't have an account? Register now (free) for customized features, flight alerts, and more!